{"data":{"norad_id":53470,"epoch":"2026-05-24T19:14:24.555840Z","epoch_age_seconds":102614,"freshness":"FRESH","line1":"1 53470U 22099F   26144.80167310  .00000717  00000+0  53727-4 0  9996","line2":"2 53470  97.4521 264.7510 0001398 154.1650 205.9647 15.05649958207427","mean_motion":15.05649958,"eccentricity":0.0001398,"inclination_deg":97.4521,"raan_deg":264.751,"arg_perigee_deg":154.165,"mean_anomaly_deg":205.9647,"bstar":5.3727e-5,"rev_number":20742,"period_min":95.639759583482,"perigee_km":548.54279764001,"apogee_km":550.47976809989,"semimajor_km":6927.6482828699,"source":"CELESTRAK","updated_at":"2026-05-25T13:38:17.409405Z"}}